Location: Chillicothe
(39.7950°N, 93.5520°W)
Time: 07:53:43
(UTC-06:00)

BEESAT - Pass Details

Date: 24 November 2019
Orbit: 700 x 709 km, 98.6° (Epoch: 06 December)

Event Time Altitude Azimuth Distance (km) Brightness Sun altitude
Rises 18:17:40 0° 6° (N) 3,098 ? -16.1°
Reaches altitude 10° 18:20:00 10° 0° (N) 2,177 ? -16.6°
Maximum altitude 18:24:31 45° 289° (WNW) 963 ? -17.4°
Drops below altitude 10° 18:29:01 10° 217° (SW) 2,168 ? -18.3°
Sets 18:31:21 0° 211° (SSW) 3,083 ? -18.7°
